"Pseudo-MPEC" for P10SzdX

Created 2019 Oct 16 16:07:13 UT using Find_Orb

Click here for an explanation of pseudo-MPECs

 
 Astrometry: 
     P10SzdX  C2019 10 08p52`oxmy`bAstrometry;2=i#JaCi6HK1TbhGredacted;CxBmgTF51
     P10SzdX  C2019 10 08-\-6GQY4uclick]^6hereZML(y7\;%)=#\9JforInX`U2vOM[cHrF51
     P10SzdX  C2019 10 08G_SOe[(#rw\Un97.aVvG1bCg7JTMOV2\_Q=explanationATikE2F51

Station data:
(F51) Pan-STARRS 1, Haleakala  (N20.707235 W156.255910)  US/Hawaii.
   Observers N. Primak, A. Schultz, S. Watters, J. Thiel, T. Goggia. Measurer
   PS1 Science Consortium. 1.8-m Ritchey-Chrétien + CCD.

Orbital elements:  P10SzdX
   Perihelion 2019 Oct 20.592211 +/- 39.7 TT = 14:12:47 (JD 2458777.092211)
Epoch 2019 Oct  9.0 TT = JDT 2458765.5   Earth MOID: 0.0216   AutoNEOCP
M 349.59537059 +/- 33               (J2000 ecliptic)
n   0.89755345 +/- 0.478            Peri.    2.43807 +/- 70
a   1.06437786 +/- 0.378            Node    24.83790 +/- 48
e   0.0435611 +/- 0.274             Incl.    8.28051 +/- 18
P   1.10/401.08d           H 25.5   G  0.15   U 12.2  SR
q 1.01801232 +/- 0.161    Q 1.11074339 +/- 28.6
From 3 observations 2019 Oct. 8 (33.0 min); mean residual 0".07
Residuals in arcseconds: 
191008 F51  .03+  .06-    191008 F51  .05-  .13+    191008 F51  .03+  .06-    

Ephemerides (geocentric):
Date (UTC) HH   RA              Dec         delta   r     elong  mag " sig PA
---- -- -- --  -------------   -----------  ------ ------ -----  --- ---- ---
2019 10 16 16  03 34 16.264   +10 44 55.73  .02493 1.0181 147.9 18.8  73d  13
2019 10 16 17  03 34 01.766   +10 58 46.87  .02491 1.0181 148.0 18.8  73d  13
2019 10 16 18  03 33 47.220   +11 12 38.93  .02490 1.0181 148.1 18.8  72d  13
2019 10 16 19  03 33 32.624   +11 26 31.86  .02488 1.0181 148.2 18.8  72d  13
2019 10 16 20  03 33 17.980   +11 40 25.64  .02487 1.0181 148.3 18.8  72d  13
2019 10 16 21  03 33 03.286   +11 54 20.25  .02486 1.0181 148.4 18.8  72d  13
2019 10 16 22  03 32 48.542   +12 08 15.64  .02484 1.0181 148.4 18.8  72d  13
2019 10 16 23  03 32 33.749   +12 22 11.80  .02483 1.0181 148.5 18.8  72d  13
2019 10 17 00  03 32 18.906   +12 36 08.68  .02482 1.0181 148.6 18.8  72d  13
2019 10 17 01  03 32 04.013   +12 50 06.26  .02481 1.0181 148.7 18.8  72d  13
2019 10 17 02  03 31 49.070   +13 04 04.50  .02480 1.0181 148.8 18.8  72d  13
2019 10 17 03  03 31 34.077   +13 18 03.38  .02479 1.0181 148.9 18.8  72d  13
2019 10 17 04  03 31 19.034   +13 32 02.86  .02478 1.0181 149.0 18.8  72d  13
2019 10 17 05  03 31 03.940   +13 46 02.92  .02477 1.0181 149.0 18.8  72d  13
2019 10 17 06  03 30 48.795   +14 00 03.51  .02476 1.0181 149.1 18.8  72d  13
2019 10 17 07  03 30 33.599   +14 14 04.60  .02475 1.0181 149.2 18.8  72d  13
2019 10 17 08  03 30 18.353   +14 28 06.18  .02475 1.0181 149.3 18.8  72d  13
2019 10 17 09  03 30 03.055   +14 42 08.19  .02474 1.0180 149.3 18.8  72d  13
2019 10 17 10  03 29 47.706   +14 56 10.61  .02473 1.0180 149.4 18.8  72d  13
2019 10 17 11  03 29 32.305   +15 10 13.42  .02472 1.0180 149.5 18.8  72d  13
2019 10 17 12  03 29 16.853   +15 24 16.56  .02472 1.0180 149.6 18.8  72d  13
2019 10 17 13  03 29 01.349   +15 38 20.02  .02471 1.0180 149.6 18.8  72d  13
2019 10 17 14  03 28 45.794   +15 52 23.75  .02471 1.0180 149.7 18.8  72d  13
2019 10 17 15  03 28 30.186   +16 06 27.73  .02470 1.0180 149.8 18.8  72d  13
2019 10 17 16  03 28 14.526   +16 20 31.92  .02470 1.0180 149.8 18.8  71d  13
2019 10 17 17  03 27 58.814   +16 34 36.29  .02470 1.0180 149.9 18.8  71d  13
2019 10 17 18  03 27 43.049   +16 48 40.81  .02469 1.0180 149.9 18.8  71d  13
2019 10 17 19  03 27 27.231   +17 02 45.44  .02469 1.0180 150.0 18.8  71d  13
2019 10 17 20  03 27 11.361   +17 16 50.14  .02469 1.0180 150.1 18.8  71d  13
2019 10 17 21  03 26 55.438   +17 30 54.90  .02468 1.0180 150.1 18.8  71d  13
2019 10 17 22  03 26 39.462   +17 44 59.66  .02468 1.0180 150.2 18.8  71d  13
2019 10 17 23  03 26 23.432   +17 59 04.40  .02468 1.0180 150.2 18.8  71d  13
2019 10 18 00  03 26 07.350   +18 13 09.09  .02468 1.0180 150.3 18.8  71d  13
2019 10 18 01  03 25 51.213   +18 27 13.69  .02468 1.0180 150.3 18.7  71d  13
2019 10 18 02  03 25 35.023   +18 41 18.16  .02468 1.0180 150.4 18.7  71d  13
2019 10 18 03  03 25 18.779   +18 55 22.48  .02468 1.0180 150.4 18.7  71d  13
2019 10 18 04  03 25 02.481   +19 09 26.61  .02468 1.0180 150.4 18.7  71d  13
2019 10 18 05  03 24 46.129   +19 23 30.52  .02469 1.0180 150.5 18.7  70d  13
2019 10 18 06  03 24 29.723   +19 37 34.17  .02469 1.0180 150.5 18.7  70d  13
2019 10 18 07  03 24 13.262   +19 51 37.53  .02469 1.0180 150.6 18.7  70d  13
2019 10 18 08  03 23 56.747   +20 05 40.57  .02469 1.0180 150.6 18.7  70d  13
2019 10 18 09  03 23 40.177   +20 19 43.25  .02470 1.0180 150.6 18.7  70d  13
2019 10 18 10  03 23 23.552   +20 33 45.53  .02470 1.0180 150.7 18.7  70d  13
2019 10 18 11  03 23 06.872   +20 47 47.40  .02470 1.0180 150.7 18.7  70d  13
2019 10 18 12  03 22 50.137   +21 01 48.80  .02471 1.0180 150.7 18.7  70d  13
2019 10 18 13  03 22 33.346   +21 15 49.72  .02471 1.0180 150.7 18.7  70d  13
2019 10 18 14  03 22 16.501   +21 29 50.11  .02472 1.0180 150.8 18.7  70d  13
2019 10 18 15  03 21 59.599   +21 43 49.95  .02473 1.0180 150.8 18.7  69d  13